Location: Fort Worth, Tx
(32.7431°N, 97.3695°W)
Time: 13:03:25
(UTC-05:00)

Altair - Visible Passes

Search period start: 30 January 2023 00:00
Search period end: 09 February 2023 00:00
Orbit: 1501 x 1683 km, 47.2° (Epoch: 29 January)

Date Brightness Start Highest point End Pass type
(mag) Time Alt. Az. Time Alt. Az. Time Alt. Az.
30 Jan 9.0 04:15:32 26° ESE 04:15:32 26° ESE 04:19:07 10° ESE visible
30 Jan 8.2 06:13:36 35° SW 06:13:36 35° SW 06:21:57 10° S visible
30 Jan 8.4 19:12:07 10° S 19:19:58 30° SE 19:28:04 10° ENE visible
30 Jan 7.5 21:14:21 10° SW 21:24:00 82° NW 21:27:08 51° NE visible
30 Jan 9.1 23:20:58 10° W 23:25:12 26° WNW 23:25:12 26° WNW visible
31 Jan 9.5 03:52:21 16° ESE 03:52:21 16° ESE 03:53:50 10° ESE visible
31 Jan 8.3 05:50:26 35° SSW 05:50:26 35° SSW 05:57:07 10° SSE visible
31 Jan 7.5 20:49:09 10° SW 20:58:46 87° NW 21:03:45 35° NE visible
31 Jan 8.7 22:55:34 10° W 23:01:48 34° NW 23:01:48 34° NW visible
01 Feb 8.6 05:27:15 30° S 05:27:15 30° S 05:32:13 10° SSE visible
01 Feb 7.5 20:23:59 10° SW 20:33:34 87° SE 20:40:18 24° NE visible
01 Feb 8.3 22:30:10 10° W 22:38:21 41° NNW 22:38:21 41° NNW visible
02 Feb 9.0 05:04:05 22° S 05:04:05 22° S 05:07:17 10° SSE visible
02 Feb 7.5 19:58:51 10° SW 20:08:22 81° SE 20:16:48 16° NE visible
02 Feb 8.2 22:04:47 10° W 22:13:57 44° NNW 22:14:51 43° N visible
03 Feb 9.7 00:12:12 10° WNW 00:12:53 12° NW 00:12:53 12° NW visible
03 Feb 9.4 04:40:55 15° SSE 04:40:55 15° SSE 04:42:18 10° SSE visible
03 Feb 7.6 19:33:45 10° SW 19:43:11 75° SE 19:53:03 10° NE visible
03 Feb 8.2 21:39:24 10° W 21:48:36 46° NNW 21:51:18 39° NNE visible
03 Feb 9.4 23:46:51 10° WNW 23:49:20 18° NW 23:49:20 18° NW visible
04 Feb 8.1 21:14:02 10° W 21:23:16 48° NNW 21:27:42 31° NNE visible
04 Feb 9.1 23:21:29 10° WNW 23:25:44 24° NW 23:25:44 24° NW visible
05 Feb 8.1 20:48:41 10° W 20:57:57 51° NNW 21:04:04 24° NE visible
05 Feb 8.8 22:56:08 10° WNW 23:02:06 30° NNW 23:02:06 30° NNW visible
06 Feb 8.1 20:23:22 10° WSW 20:32:39 53° NNW 20:40:24 17° NE visible
06 Feb 8.6 22:30:45 10° WNW 22:38:26 34° NNW 22:38:26 34° NNW visible
07 Feb 8.0 19:58:02 10° WSW 20:07:21 56° NNW 20:16:42 11° NE visible
07 Feb 8.4 22:05:23 10° WNW 22:14:05 35° N 22:14:43 34° N visible
08 Feb 9.6 00:11:43 10° NW 00:12:45 14° NW 00:12:45 14° NW visible
08 Feb 8.0 19:32:44 10° WSW 19:42:04 60° NNW 19:51:50 10° NE visible
08 Feb 8.4 21:40:00 10° WNW 21:48:41 35° N 21:51:00 32° NNE visible
